User: anonymous   Login
Location: *
(32.3300°N, 34.8500°E)
Time: 23:17:31
(UTC+00:00)
Language:

Cosmos 1603 - Orbit

View from above orbital plane
View from above orbital plane
View from above satellite
View from above satellite

Ground track
Ground track

The orbit data is extracted from the following two-line orbital elements,

1 15333U 84106A   19348.75616421 +.00000247 +00000-0 +15445-3 0  9996
2 15333 071.0256 345.5900 0021821 261.1541 098.7110 14.14091071816748
Epoch (UTC): 14 December 2019 18:08:52
Eccentricity: 0.0021821
inclination: 71.0256°
perigee height: 829 km
apogee height: 861 km
right ascension of ascending node: 345.5900°
argument of perigee: 261.1541°
revolutions per day: 14.14091071
mean anomaly at epoch: 98.7110°
orbit number at epoch: 81674

The dashed part of the orbit path shows where the satellite is in the earth's shadow,  

DLR